Regional Weather Roundup
Issued by NWS

Home | Current Version | Previous Version | Graphics & Text | Print | Product List | Glossary On
Versions: 1 2 3 4 5 6 7 8 9 10 11 12 13 14 15 16 17 18 19 20 21 22 23 24 25 26 27 28 29 30 31 32 33 34 35 36 37 38 39 40 41 42 43 44 45 46 47 48 49 50
784
ASUS43 KFSD 191702
RWRSD

WEATHER ROUNDUP FOR SOUTH DAKOTA
NATIONAL WEATHER SERVICE SIOUX FALLS SD
1100 AM CST THU JAN 19 2017

NOTE: "FAIR" INDICATES FEW OR NO CLOUDS BELOW 12,000 FEET WITH NO
SIGNIFICANT WEATHER AND/OR OBSTRUCTIONS TO VISIBILITY.


SDZ001>005-009-010-012>017-191800-
NORTHWEST AND NORTH CENTRAL SOUTH DAKOTA

CITY           SKY/WX    TMP DP  RH WIND       PRES   REMARKS
BUFFALO          N/A     31  19  61 NW7       29.44R WCI  24
FAITH            N/A     26  19  74 NW7       29.50R WCI  18
MOBRIDGE       CLOUDY    16  10  77 S3        29.53R
$$

SDZ012>016-024>037-041>051-057-063-072>074-191800-
SOUTHWEST AND SOUTH CENTRAL SOUTH DAKOTA

CITY           SKY/WX    TMP DP  RH WIND       PRES   REMARKS
RAPID CTY ARPT CLOUDY    41  24  51 N7        29.49S
PIERRE         CLOUDY    17  15  92 CALM      29.55S
CUSTER         CLOUDY    47  14  26 W6        29.52F
ELLSWORTH AFB  CLOUDY    36  23  60 N6        29.49S
PHILIP         CLOUDY    19  15  84 W5        29.53S WCI  12
PINE RIDGE     CLOUDY    37  23  56 W13       29.53S
SPEARFISH      FAIR      41  23  48 S3        29.50S
WINNER         FAIR      40  32  73 S16G23    29.57R
$$

SDZ004>011-016>023-039-040-191800-
NORTHEAST SOUTH DAKOTA

CITY           SKY/WX    TMP DP  RH WIND       PRES   REMARKS
ABERDEEN       CLOUDY    33  30  88 S13       29.59S FOG     WCI  24
WATERTOWN      SUNNY     33  32  96 S15       29.61F WCI  23
BROOKINGS      SUNNY     37  33  85 S20       29.65F
SISSETON         N/A     36  34  92 SE9       29.61S
$$

SDZ017-020-022-023-036>040-048>070-191800-
SOUTHEAST SOUTH DAKOTA

CITY           SKY/WX    TMP DP  RH WIND       PRES   REMARKS
SIOUX FALLS    FOG       36  36 100 S10       29.71S VSB 1/8
HURON          FOG       33  33 100 S15G22    29.61S VSB 3/4 WCI  23
CHAMBERLAIN    PTSUNNY   41  37  87 S10       29.59S
MITCHELL       FOG       35  35 100 S18G26    29.65F VSB 1/4 WCI  24
YANKTON        CLOUDY    37  34  87 SE7       29.69F
$$

ABBREVIATIONS USED IN REMARKS
   TC - TEMPERATURE IN CELSIUS
  WCI - WIND CHILL INDEX
   HX - HEAT INDEX
  VSB - VISIBILITY





USA.gov is the U.S. government's official web portal to all federal, state and local government web resources and services.